Find Starlink 34908

NORAD ID: 65329 Int'l Des: 2025-189 Owner: SPXS Country: US Constellation: starlink operational
LEOCIRCULAR

当前视图

正在加载3D地球...

About Starlink 34908

Starlink 34908 (NORAD 65329) is a starlink constellation satellite (v2 mini) launched Aug 27, 2025 by SPXS of US. It operates in LEO, CIRCULAR orbit with a mass of 575.00 kg.

关于 Starlink 34908

正在加载描述...

即将过境

Passes for default location (London). Set your location on the main map for personalized predictions.

高度历史

Loading altitude history...

两行轨道根数

1 65329U 25189G 26193.71774788 .00008702 00000-0 26840-3 0 9990
2 65329 53.1597 345.6894 0001064 110.3756 249.7361 15.34398265 50250
Epoch: Jul 12, 2026 • Age: 8 hours

当前状态

高度 470.6 km
远地点 / 近地点 N/A
速度 7.63 km/s
星下点 -25.22°S, 19.17°E
发射日期 Aug 27, 2025
运行时间 0.8 years
类型 internet

技术详情

分类 Payload
质量 575.00 kg
干质量 530.00 kg
总质量 575.00 kg
长度 0.30 m
直径 4.10 m
跨度 29.00 m
形状 Box + pan
制造商 SPXS
平台类型 Starlink V2MO
阶段状态 In Orbit
所有者/国家 SPXS/US

Most Searched